CFG3511 LIRF-EDDF

Flight info

Callsign CFG3511
Flight time 1h 35m
Altitude 36000
Route SOVAN DCT AMTEL DCT GIKEB DCT EKPEB DCT BRENO DCT KONIN DCT ERNAS T161 ASPAT/N0453F300 T161 DEBHI DEBHI1B
Aircraft A320/M-SDE3FGHIJ1LORVWXYZ/S

Departure

Time 2026-04-15 14:39
Airport Rome–Fiumicino Leonardo da Vinci International Airport (LIRF)

Arrival

Time 2026-04-15 16:14
Airport Frankfurt Main Airport (EDDF)
Time Latitude Longitude Altitude Speed Heading
2026-04-15 14:04 41.79731 12.25084 14 ft 0 kts 115°
2026-04-15 14:25 41.79734 12.25075 14 ft 4 kts 115°
2026-04-15 14:25 41.79745 12.25042 15 ft 4 kts 115°
2026-04-15 14:25 41.79753 12.25011 15 ft 4 kts 82°
2026-04-15 14:26 41.79742 12.24985 14 ft 3 kts 26°
2026-04-15 14:26 41.79751 12.24990 14 ft 4 kts 25°
2026-04-15 14:26 41.79775 12.25005 16 ft 4 kts 25°
2026-04-15 14:26 41.79791 12.25015 15 ft 4 kts 25°
2026-04-15 14:27 41.79816 12.25030 16 ft 4 kts 25°
2026-04-15 14:27 41.79827 12.25037 14 ft 0 kts 25°
2026-04-15 14:32 41.79827 12.25038 14 ft 0 kts 25°
2026-04-15 14:32 41.79864 12.25061 15 ft 8 kts 25°
2026-04-15 14:32 41.79922 12.25097 15 ft 10 kts 25°
2026-04-15 14:32 41.79982 12.25136 14 ft 10 kts 26°
2026-04-15 14:33 41.80051 12.25178 14 ft 12 kts 24°
2026-04-15 14:33 41.80114 12.25253 14 ft 16 kts 65°
2026-04-15 14:33 41.80162 12.25381 14 ft 14 kts 42°
2026-04-15 14:33 41.80244 12.25426 15 ft 11 kts 19°
2026-04-15 14:34 41.80319 12.25486 16 ft 17 kts 56°
2026-04-15 14:34 41.80362 12.25632 16 ft 16 kts 71°
2026-04-15 14:34 41.80398 12.25766 15 ft 14 kts 70°
2026-04-15 14:34 41.80431 12.25886 17 ft 13 kts 70°
2026-04-15 14:35 41.80463 12.26002 17 ft 17 kts 69°
2026-04-15 14:35 41.80506 12.26159 17 ft 17 kts 68°
2026-04-15 14:35 41.80547 12.26298 18 ft 15 kts 69°
2026-04-15 14:35 41.80583 12.26430 16 ft 16 kts 71°
2026-04-15 14:36 41.80624 12.26579 15 ft 16 kts 69°
2026-04-15 14:36 41.80662 12.26716 15 ft 15 kts 69°
2026-04-15 14:36 41.80704 12.26872 14 ft 19 kts 71°
2026-04-15 14:36 41.80740 12.27003 13 ft 14 kts 66°
2026-04-15 14:37 41.80810 12.27040 13 ft 11 kts 342°
2026-04-15 14:37 41.80853 12.27018 13 ft 6 kts 339°
2026-04-15 14:37 41.80893 12.26998 13 ft 9 kts 339°
2026-04-15 14:37 41.80953 12.26956 13 ft 9 kts 306°
2026-04-15 14:38 41.80956 12.26936 12 ft 0 kts 277°
2026-04-15 14:38 41.80956 12.26934 12 ft 1 kts 270°
2026-04-15 14:38 41.80956 12.26931 12 ft 2 kts 266°
2026-04-15 14:38 41.80890 12.26680 16 ft 64 kts 250°
2026-04-15 14:39 41.80659 12.25841 19 ft 125 kts 250°
2026-04-15 14:39 41.80305 12.24548 107 ft 163 kts 250°
2026-04-15 14:39 41.79914 12.23104 736 ft 165 kts 250°
2026-04-15 14:39 41.79506 12.21654 1371 ft 170 kts 252°
2026-04-15 14:40 41.79202 12.20030 1662 ft 192 kts 275°
2026-04-15 14:40 41.79616 12.18301 2244 ft 202 kts 308°
2026-04-15 14:40 41.80486 12.16826 2920 ft 206 kts 311°
2026-04-15 14:40 41.81384 12.15320 3630 ft 208 kts 310°
2026-04-15 14:41 41.81502 12.15120 3720 ft 209 kts 310°
2026-04-15 14:41 41.82190 12.13963 4047 ft 216 kts 310°
2026-04-15 14:41 41.83124 12.12384 4179 ft 216 kts 310°
2026-04-15 14:42 41.84121 12.10898 4211 ft 213 kts 324°
2026-04-15 14:42 41.85453 12.09932 4230 ft 234 kts 345°
2026-04-15 14:42 41.87129 12.09308 4223 ft 258 kts 346°
2026-04-15 14:42 41.88877 12.08667 4226 ft 261 kts 346°
2026-04-15 14:43 41.90621 12.08021 4330 ft 268 kts 346°
2026-04-15 14:43 41.92426 12.07348 5244 ft 269 kts 346°
2026-04-15 14:43 41.94246 12.06672 6220 ft 273 kts 346°
2026-04-15 14:43 41.96103 12.06088 7051 ft 276 kts 355°
2026-04-15 14:44 41.98031 12.05882 7861 ft 279 kts 359°
2026-04-15 14:44 41.99981 12.05694 8664 ft 282 kts 358°
2026-04-15 14:44 42.01961 12.05505 9489 ft 286 kts 358°
2026-04-15 14:44 42.03956 12.05314 10236 ft 290 kts 358°
2026-04-15 14:45 42.06016 12.05115 10630 ft 308 kts 358°
2026-04-15 14:45 42.07132 12.05009 10732 ft 320 kts 358°
2026-04-15 14:45 42.08407 12.04888 10805 ft 334 kts 358°
2026-04-15 14:46 42.09550 12.04778 10963 ft 342 kts 358°
2026-04-15 14:46 42.10083 12.04725 11063 ft 344 kts 358°
2026-04-15 14:46 42.11010 12.04629 11306 ft 346 kts 357°
2026-04-15 14:46 42.12187 12.04604 11455 ft 349 kts
2026-04-15 14:47 42.14717 12.04601 11539 ft 371 kts 359°
2026-04-15 14:47 42.17260 12.04350 12600 ft 361 kts 357°
2026-04-15 14:47 42.19739 12.03805 13348 ft 363 kts 349°
2026-04-15 14:47 42.22219 12.03077 14034 ft 366 kts 351°
2026-04-15 14:48 42.24414 12.02503 14559 ft 368 kts 352°
2026-04-15 14:48 42.26950 12.01899 15170 ft 371 kts 353°
2026-04-15 14:48 42.29512 12.01329 15787 ft 375 kts 353°
2026-04-15 14:48 42.32100 12.00768 16390 ft 378 kts 353°
2026-04-15 14:49 42.34708 12.00204 16983 ft 381 kts 353°
2026-04-15 14:49 42.37335 11.99629 17583 ft 384 kts 353°
2026-04-15 14:49 42.39986 11.99043 18163 ft 388 kts 353°
2026-04-15 14:49 42.42665 11.98442 18696 ft 391 kts 353°
2026-04-15 14:50 42.45365 11.97833 19234 ft 394 kts 353°
2026-04-15 14:50 42.48039 11.97228 19753 ft 396 kts 353°
2026-04-15 14:50 42.50802 11.96601 20296 ft 399 kts 353°
2026-04-15 14:50 42.53515 11.95983 20816 ft 402 kts 353°
2026-04-15 14:51 42.56290 11.95349 21329 ft 405 kts 353°
2026-04-15 14:51 42.59076 11.94715 21829 ft 408 kts 353°
2026-04-15 14:51 42.61893 11.94078 22287 ft 411 kts 354°
2026-04-15 14:51 42.64729 11.93435 22744 ft 415 kts 354°
2026-04-15 14:52 42.67584 11.92785 23196 ft 417 kts 354°
2026-04-15 14:52 42.70460 11.92127 23641 ft 420 kts 353°
2026-04-15 14:52 42.73360 11.91465 23943 ft 423 kts 354°
2026-04-15 14:52 42.76259 11.90803 24017 ft 423 kts 353°
2026-04-15 14:53 42.79131 11.90149 24028 ft 423 kts 353°
2026-04-15 14:53 42.82020 11.89407 24027 ft 425 kts 348°
2026-04-15 14:53 42.84832 11.88092 24034 ft 429 kts 339°
2026-04-15 14:53 42.87502 11.86226 24037 ft 432 kts 335°
2026-04-15 14:54 42.90146 11.84287 24042 ft 431 kts 335°
2026-04-15 14:54 42.92758 11.82375 24044 ft 431 kts 334°
2026-04-15 14:54 42.94879 11.80824 24043 ft 431 kts 334°
2026-04-15 14:55 42.95950 11.80064 24038 ft 430 kts 335°
2026-04-15 14:55 42.98589 11.78115 24047 ft 431 kts 335°
2026-04-15 14:55 43.01210 11.76184 24337 ft 434 kts 335°
2026-04-15 14:56 43.03878 11.74227 24692 ft 436 kts 334°
2026-04-15 14:56 43.06539 11.72278 25097 ft 437 kts 334°
2026-04-15 14:56 43.09230 11.70304 25471 ft 439 kts 333°
2026-04-15 14:56 43.11921 11.68321 25810 ft 441 kts 334°
2026-04-15 14:57 43.14639 11.66316 26145 ft 443 kts 334°
2026-04-15 14:57 43.17361 11.64307 26435 ft 447 kts 333°
2026-04-15 14:57 43.20178 11.62523 26761 ft 447 kts 342°
2026-04-15 14:57 43.23125 11.61378 27075 ft 446 kts 351°
2026-04-15 14:58 43.26213 11.60883 27393 ft 447 kts 359°
2026-04-15 14:58 43.29321 11.60889 27666 ft 449 kts
2026-04-15 14:58 43.32458 11.60913 27982 ft 451 kts
2026-04-15 14:58 43.35040 11.60924 28224 ft 452 kts
2026-04-15 14:59 43.37667 11.60929 28434 ft 455 kts
2026-04-15 14:59 43.40837 11.60936 28718 ft 457 kts
2026-04-15 14:59 43.43976 11.60944 28983 ft 458 kts
2026-04-15 14:59 43.47225 11.60955 29198 ft 462 kts
2026-04-15 15:00 43.50397 11.60965 29464 ft 463 kts
2026-04-15 15:00 43.53664 11.60975 29727 ft 465 kts
2026-04-15 15:00 43.56872 11.60987 29926 ft 468 kts
2026-04-15 15:00 43.59893 11.61000 30157 ft 469 kts
2026-04-15 15:01 43.62838 11.61015 30412 ft 468 kts
2026-04-15 15:01 43.66081 11.61032 30760 ft 465 kts
2026-04-15 15:01 43.69303 11.61049 31174 ft 460 kts
2026-04-15 15:01 43.72483 11.61064 31633 ft 454 kts
2026-04-15 15:02 43.75630 11.61073 32114 ft 448 kts
2026-04-15 15:02 43.78730 11.61079 32569 ft 442 kts
2026-04-15 15:02 43.81779 11.61084 33052 ft 436 kts
2026-04-15 15:02 43.84807 11.61094 33446 ft 432 kts
2026-04-15 15:03 43.87807 11.61109 33832 ft 429 kts
2026-04-15 15:03 43.90778 11.61124 34168 ft 426 kts
2026-04-15 15:03 43.93738 11.61138 34465 ft 424 kts
2026-04-15 15:03 43.96694 11.61150 34724 ft 423 kts
2026-04-15 15:04 43.99635 11.61163 34967 ft 423 kts
2026-04-15 15:04 44.02458 11.61175 35190 ft 422 kts
2026-04-15 15:04 44.05423 11.61185 35438 ft 421 kts
2026-04-15 15:04 44.08238 11.61193 35652 ft 420 kts
2026-04-15 15:05 44.10660 11.61201 35839 ft 420 kts
2026-04-15 15:05 44.13586 11.61210 36040 ft 419 kts
2026-04-15 15:05 44.16508 11.61219 36142 ft 420 kts
2026-04-15 15:06 44.25275 11.61257 36166 ft 420 kts
2026-04-15 15:06 44.31115 11.61280 36165 ft 420 kts
2026-04-15 15:07 44.36950 11.61312 36161 ft 419 kts
2026-04-15 15:07 44.42758 11.61340 36155 ft 419 kts
2026-04-15 15:08 44.48593 11.61358 36155 ft 419 kts
2026-04-15 15:08 44.54423 11.61380 36154 ft 419 kts
2026-04-15 15:09 44.60250 11.61404 36151 ft 419 kts
2026-04-15 15:09 44.66082 11.61430 36153 ft 419 kts
2026-04-15 15:10 44.71914 11.61460 36156 ft 419 kts
2026-04-15 15:10 44.77741 11.61481 36158 ft 419 kts
2026-04-15 15:11 44.83572 11.61503 36155 ft 418 kts
2026-04-15 15:11 44.88863 11.61521 36159 ft 418 kts
2026-04-15 15:12 44.94683 11.61540 36161 ft 418 kts
2026-04-15 15:12 45.00504 11.61571 36159 ft 418 kts
2026-04-15 15:13 45.06318 11.61600 36158 ft 417 kts
2026-04-15 15:13 45.12123 11.61627 36155 ft 417 kts
2026-04-15 15:14 45.16954 11.61646 36150 ft 417 kts
2026-04-15 15:14 45.22747 11.61669 36137 ft 415 kts
2026-04-15 15:15 45.28511 11.61690 36163 ft 413 kts
2026-04-15 15:15 45.34240 11.61710 36166 ft 411 kts
2026-04-15 15:16 45.39956 11.61736 36164 ft 409 kts
2026-04-15 15:16 45.45641 11.61761 36165 ft 408 kts
2026-04-15 15:17 45.51326 11.61791 36161 ft 408 kts
2026-04-15 15:17 45.53528 11.61800 36161 ft 408 kts
2026-04-15 15:18 45.58101 11.61818 36148 ft 407 kts
2026-04-15 15:18 45.63733 11.61844 36153 ft 406 kts
2026-04-15 15:19 45.69387 11.61871 36160 ft 406 kts
2026-04-15 15:19 45.75031 11.61894 36162 ft 406 kts
2026-04-15 15:20 45.80681 11.61911 36158 ft 406 kts
2026-04-15 15:20 45.86327 11.61933 36153 ft 406 kts
2026-04-15 15:21 45.91973 11.61961 36153 ft 405 kts
2026-04-15 15:21 45.97615 11.61987 36152 ft 405 kts
2026-04-15 15:22 46.03259 11.62010 36154 ft 405 kts
2026-04-15 15:22 46.08893 11.62028 36153 ft 405 kts
2026-04-15 15:23 46.14521 11.62054 36152 ft 405 kts
2026-04-15 15:23 46.20110 11.61553 36158 ft 408 kts 351°
2026-04-15 15:24 46.25665 11.59916 36139 ft 408 kts 351°
2026-04-15 15:24 46.31225 11.58293 36128 ft 408 kts 351°
2026-04-15 15:25 46.36790 11.56668 36137 ft 408 kts 351°
2026-04-15 15:25 46.42352 11.55041 36114 ft 408 kts 351°
2026-04-15 15:26 46.47907 11.53417 36101 ft 407 kts 352°
2026-04-15 15:26 46.53452 11.51778 36116 ft 407 kts 351°
2026-04-15 15:27 46.59013 11.50142 36114 ft 407 kts 351°
2026-04-15 15:27 46.64564 11.48513 36119 ft 407 kts 351°
2026-04-15 15:28 46.70125 11.46867 36107 ft 408 kts 351°
2026-04-15 15:28 46.75669 11.45080 36123 ft 408 kts 350°
2026-04-15 15:29 46.81206 11.43210 36092 ft 408 kts 350°
2026-04-15 15:29 46.86746 11.41361 36095 ft 409 kts 350°
2026-04-15 15:30 46.92301 11.39533 36100 ft 409 kts 350°
2026-04-15 15:30 46.97878 11.37827 36097 ft 408 kts 356°
2026-04-15 15:31 47.03494 11.37596 36112 ft 406 kts
2026-04-15 15:31 47.09157 11.37538 36116 ft 407 kts
2026-04-15 15:32 47.14822 11.37489 36100 ft 407 kts
2026-04-15 15:32 47.20483 11.37452 36100 ft 407 kts
2026-04-15 15:33 47.26142 11.37400 36102 ft 407 kts
2026-04-15 15:33 47.31803 11.37338 36094 ft 407 kts
2026-04-15 15:34 47.37481 11.37268 36102 ft 408 kts
2026-04-15 15:34 47.43153 11.37206 36120 ft 408 kts
2026-04-15 15:35 47.48825 11.37151 36133 ft 407 kts
2026-04-15 15:35 47.54494 11.37101 36144 ft 408 kts
2026-04-15 15:36 47.60169 11.37050 36166 ft 407 kts
2026-04-15 15:36 47.65843 11.36992 36155 ft 408 kts
2026-04-15 15:37 47.71516 11.36937 36170 ft 408 kts
2026-04-15 15:37 47.77193 11.36884 36179 ft 408 kts
2026-04-15 15:38 47.82836 11.36827 36184 ft 408 kts
2026-04-15 15:38 47.88505 11.36365 36194 ft 409 kts 355°
2026-04-15 15:39 47.94171 11.35521 36189 ft 409 kts 355°
2026-04-15 15:39 47.99847 11.34681 36190 ft 409 kts 355°
2026-04-15 15:40 48.05506 11.33844 36192 ft 409 kts 355°
2026-04-15 15:40 48.11172 11.33010 36197 ft 409 kts 355°
2026-04-15 15:41 48.16833 11.32162 36196 ft 409 kts 355°
2026-04-15 15:41 48.22464 11.31319 36198 ft 409 kts 355°
2026-04-15 15:42 48.28166 11.30464 36200 ft 409 kts 355°
2026-04-15 15:42 48.33792 11.29625 36203 ft 409 kts 355°
2026-04-15 15:43 48.39452 11.28770 36207 ft 409 kts 355°
2026-04-15 15:43 48.45151 11.27905 36210 ft 409 kts 355°
2026-04-15 15:44 48.50804 11.27051 36192 ft 410 kts 355°
2026-04-15 15:44 48.56481 11.26201 36192 ft 410 kts 354°
2026-04-15 15:45 48.62127 11.25339 36193 ft 411 kts 354°
2026-04-15 15:45 48.67814 11.24469 36185 ft 411 kts 354°
2026-04-15 15:46 48.73500 11.23602 36185 ft 411 kts 354°
2026-04-15 15:46 48.79193 11.22724 36200 ft 411 kts 354°
2026-04-15 15:47 48.84667 11.20358 36199 ft 412 kts 335°
2026-04-15 15:47 48.89310 11.15206 36196 ft 417 kts 320°
2026-04-15 15:48 48.93582 11.09243 36199 ft 417 kts 320°
2026-04-15 15:48 48.97864 11.03273 36191 ft 418 kts 320°
2026-04-15 15:49 49.02139 10.97294 35561 ft 416 kts 320°
2026-04-15 15:49 49.04257 10.94322 34570 ft 414 kts 320°
2026-04-15 15:49 49.06383 10.91331 33304 ft 416 kts 319°
2026-04-15 15:50 49.08080 10.88938 32221 ft 418 kts 319°
2026-04-15 15:50 49.10031 10.86183 30954 ft 422 kts 319°
2026-04-15 15:50 49.12170 10.83153 29915 ft 417 kts 318°
2026-04-15 15:50 49.14281 10.80154 28810 ft 412 kts 318°
2026-04-15 15:51 49.16381 10.77171 27967 ft 411 kts 318°
2026-04-15 15:51 49.18470 10.74205 27330 ft 408 kts 318°
2026-04-15 15:51 49.20530 10.71249 26700 ft 405 kts 316°
2026-04-15 15:51 49.22522 10.68233 26067 ft 403 kts 315°
2026-04-15 15:52 49.24468 10.65164 25442 ft 401 kts 314°
2026-04-15 15:52 49.26381 10.62087 24859 ft 399 kts 313°
2026-04-15 15:52 49.28286 10.59010 24380 ft 396 kts 313°
2026-04-15 15:52 49.30186 10.55957 24207 ft 397 kts 313°
2026-04-15 15:53 49.32096 10.52902 24215 ft 398 kts 313°
2026-04-15 15:53 49.34020 10.49845 24220 ft 398 kts 313°
2026-04-15 15:53 49.35926 10.46758 24220 ft 398 kts 310°
2026-04-15 15:53 49.37582 10.43360 24223 ft 398 kts 305°
2026-04-15 15:54 49.39176 10.39892 24160 ft 396 kts 305°
2026-04-15 15:54 49.40746 10.36452 23492 ft 389 kts 304°
2026-04-15 15:54 49.42298 10.33039 22711 ft 390 kts 304°
2026-04-15 15:54 49.43861 10.29599 22157 ft 387 kts 304°
2026-04-15 15:55 49.45380 10.26257 21645 ft 385 kts 304°
2026-04-15 15:55 49.46908 10.22894 21124 ft 382 kts 304°
2026-04-15 15:55 49.48423 10.19550 20607 ft 380 kts 304°
2026-04-15 15:55 49.49925 10.16226 20102 ft 378 kts 304°
2026-04-15 15:56 49.51421 10.12911 19606 ft 376 kts 304°
2026-04-15 15:56 49.52909 10.09618 19228 ft 374 kts 303°
2026-04-15 15:56 49.54394 10.06337 19099 ft 372 kts 303°
2026-04-15 15:56 49.55863 10.03084 18618 ft 370 kts 303°
2026-04-15 15:57 49.57331 9.99832 18261 ft 369 kts 303°
2026-04-15 15:57 49.58790 9.96589 18207 ft 369 kts 303°
2026-04-15 15:57 49.60255 9.93327 18220 ft 370 kts 303°
2026-04-15 15:57 49.61710 9.90088 17915 ft 365 kts 303°
2026-04-15 15:58 49.63150 9.86879 17396 ft 362 kts 303°
2026-04-15 15:58 49.64559 9.83731 16916 ft 360 kts 303°
2026-04-15 15:58 49.65974 9.80567 16425 ft 358 kts 303°
2026-04-15 15:58 49.67400 9.77373 15934 ft 355 kts 303°
2026-04-15 15:59 49.68778 9.74280 15470 ft 353 kts 303°
2026-04-15 15:59 49.69719 9.72169 15153 ft 352 kts 303°
2026-04-15 15:59 49.71549 9.68061 14545 ft 349 kts 303°
2026-04-15 15:59 49.72919 9.64978 14245 ft 348 kts 303°
2026-04-15 16:00 49.74289 9.61890 14183 ft 348 kts 303°
2026-04-15 16:00 49.75649 9.58818 13766 ft 345 kts 303°
2026-04-15 16:00 49.76996 9.55772 13439 ft 338 kts 303°
2026-04-15 16:00 49.78277 9.52880 13299 ft 314 kts 303°
2026-04-15 16:01 49.79092 9.51040 13210 ft 299 kts 303°
2026-04-15 16:01 49.80229 9.48469 13074 ft 279 kts 303°
2026-04-15 16:01 49.81291 9.46066 12865 ft 264 kts 302°
2026-04-15 16:01 49.82317 9.43744 12427 ft 259 kts 302°
2026-04-15 16:02 49.83323 9.41458 11941 ft 256 kts 302°
2026-04-15 16:02 49.84324 9.39180 11490 ft 256 kts 302°
2026-04-15 16:02 49.85345 9.36931 11259 ft 255 kts 309°
2026-04-15 16:02 49.86786 9.35357 11193 ft 258 kts 337°
2026-04-15 16:03 49.88520 9.34543 11194 ft 261 kts 343°
2026-04-15 16:03 49.90288 9.33859 11191 ft 262 kts 344°
2026-04-15 16:03 49.92057 9.33192 11177 ft 262 kts 344°
2026-04-15 16:03 49.93822 9.32530 10892 ft 260 kts 344°
2026-04-15 16:04 49.95578 9.31873 10590 ft 259 kts 344°
2026-04-15 16:04 49.97328 9.31215 10288 ft 258 kts 344°
2026-04-15 16:04 49.99043 9.30570 9983 ft 257 kts 344°
2026-04-15 16:04 50.00777 9.29915 9617 ft 254 kts 344°
2026-04-15 16:05 50.02486 9.29264 9070 ft 252 kts 344°
2026-04-15 16:05 50.04186 9.28607 8510 ft 251 kts 344°
2026-04-15 16:05 50.05896 9.27936 7967 ft 249 kts 344°
2026-04-15 16:05 50.07570 9.27274 7412 ft 248 kts 344°
2026-04-15 16:06 50.09194 9.26547 6889 ft 244 kts 334°
2026-04-15 16:06 50.10486 9.24945 6346 ft 237 kts 302°
2026-04-15 16:06 50.11150 9.22603 5904 ft 237 kts 286°
2026-04-15 16:06 50.11624 9.20144 5541 ft 237 kts 284°
2026-04-15 16:07 50.12071 9.17683 5205 ft 236 kts 284°
2026-04-15 16:07 50.12508 9.15222 4856 ft 235 kts 284°
2026-04-15 16:07 50.13375 9.10323 4128 ft 234 kts 284°
2026-04-15 16:08 50.13802 9.07898 4000 ft 231 kts 284°
2026-04-15 16:08 50.14225 9.05466 4003 ft 234 kts 284°
2026-04-15 16:08 50.14653 9.02995 4002 ft 234 kts 282°
2026-04-15 16:08 50.14647 9.00547 4001 ft 229 kts 247°
2026-04-15 16:09 50.13693 8.98571 4001 ft 228 kts 222°
2026-04-15 16:09 50.12760 8.96659 3989 ft 229 kts 250°
2026-04-15 16:09 50.12361 8.94216 3995 ft 231 kts 252°
2026-04-15 16:09 50.11858 8.91854 3994 ft 231 kts 249°
2026-04-15 16:10 50.11302 8.89501 3994 ft 231 kts 248°
2026-04-15 16:10 50.10748 8.87158 3991 ft 230 kts 248°
2026-04-15 16:10 50.10195 8.84812 3833 ft 231 kts 249°
2026-04-15 16:10 50.09645 8.82475 3556 ft 229 kts 248°
2026-04-15 16:11 50.09106 8.80188 3261 ft 220 kts 249°
2026-04-15 16:11 50.08592 8.78009 2967 ft 209 kts 249°
2026-04-15 16:11 50.08103 8.75934 2738 ft 198 kts 248°
2026-04-15 16:11 50.07637 8.73963 2429 ft 189 kts 248°
2026-04-15 16:12 50.07189 8.72065 2170 ft 186 kts 250°
2026-04-15 16:12 50.06849 8.70119 1986 ft 187 kts 258°
2026-04-15 16:12 50.06689 8.68201 1802 ft 167 kts 264°
2026-04-15 16:12 50.06501 8.66548 1641 ft 146 kts 251°
2026-04-15 16:13 50.06155 8.65099 1357 ft 139 kts 245°
2026-04-15 16:13 50.05771 8.63770 1135 ft 131 kts 243°
2026-04-15 16:13 50.05398 8.62502 896 ft 126 kts 248°
2026-04-15 16:13 50.05089 8.61132 784 ft 135 kts 252°
2026-04-15 16:14 50.04771 8.59760 564 ft 133 kts 250°
2026-04-15 16:14 50.04453 8.58438 379 ft 125 kts 250°
2026-04-15 16:14 50.04191 8.57336 367 ft 92 kts 249°
2026-04-15 16:14 50.04015 8.56624 358 ft 40 kts 250°
2026-04-15 16:15 50.03992 8.56377 353 ft 12 kts 280°
2026-04-15 16:15 50.04007 8.56245 355 ft 12 kts 282°
2026-04-15 16:15 50.04016 8.56165 353 ft 1 kts 280°
2026-04-15 16:15 50.04019 8.56146 350 ft 5 kts 279°
2026-04-15 16:16 50.04020 8.56136 350 ft 0 kts 279°
2026-04-15 16:18 50.04025 8.56114 356 ft 2 kts 308°
2026-04-15 16:18 50.04074 8.56134 354 ft 10 kts 28°
2026-04-15 16:18 50.04109 8.56206 359 ft 10 kts 66°
2026-04-15 16:19 50.04149 8.56374 356 ft 19 kts 70°
2026-04-15 16:19 50.04196 8.56567 357 ft 19 kts 67°
2026-04-15 16:19 50.04246 8.56763 361 ft 19 kts 70°
2026-04-15 16:19 50.04293 8.56965 362 ft 21 kts 69°
2026-04-15 16:20 50.04344 8.57181 364 ft 22 kts 70°
2026-04-15 16:20 50.04399 8.57410 365 ft 23 kts 70°
2026-04-15 16:20 50.04454 8.57637 365 ft 18 kts 69°
2026-04-15 16:20 50.04487 8.57781 368 ft 12 kts 70°
2026-04-15 16:21 50.04524 8.57941 365 ft 16 kts 70°
2026-04-15 16:21 50.04597 8.58023 360 ft 14 kts 344°
2026-04-15 16:21 50.04643 8.57997 360 ft 5 kts 340°
2026-04-15 16:21 50.04645 8.57996 361 ft 0 kts 340°
2026-04-15 16:22 50.04657 8.57989 359 ft 5 kts 340°
2026-04-15 16:23 50.04696 8.57967 359 ft 11 kts 340°
2026-04-15 16:23 50.04795 8.57910 362 ft 16 kts 339°
2026-04-15 16:23 50.04847 8.57843 362 ft 1 kts 303°
2026-04-15 16:23 50.04862 8.57788 361 ft 13 kts 292°
2026-04-15 16:24 50.04898 8.57656 363 ft 14 kts 293°
2026-04-15 16:24 50.04935 8.57535 361 ft 10 kts 292°
2026-04-15 16:24 50.04918 8.57481 357 ft 5 kts 220°
2026-04-15 16:24 50.04894 8.57453 359 ft 4 kts 217°
2026-04-15 16:25 50.04884 8.57442 358 ft 0 kts 217°